Regional Weather Roundup
Issued by NWS Midland/Odessa, TX

Skip options and go directly to product.
Home | Oldest Version | Next Version | Current Version | All | Text Only | Save Text | Print | Product List | Glossary On

Skip product version selection by date and time.   
165
ASUS44 KMAF 252201
RWRMAF
MIDLAND AREA WEATHER ROUNDUP
NATIONAL WEATHER SERVICE MIDLAND TX
500 PM CDT SAT APR 25 2015

...IN SOUTHWEST TEXAS AND SOUTHEAST NEW MEXICO...

CITY           SKY/WX    TMP DP  RH WIND       PRES   REMARKS
ALPINE         SUNNY     77  26  15 W10G22    29.95F
ANDREWS        FAIR      81  28  14 W15G29    29.77F
ARTESIA        SUNNY     81  27  13 SW21G30   29.75F
BIG SPRING     SUNNY     85  26  12 W21G26    29.78F
CARLSBAD       SUNNY     82  18   9 SW22G36   29.75F
DRYDEN           N/A     91  18   7 W17       29.74F
FORT STOCKTON  SUNNY     83  24  11 W12G20    29.79F
GUAD PASS      NOT AVBL
HOBBS          SUNNY     77  25  14 SW16G25   29.78F
MARFA          SUNNY     75  28  17 SW15G23   29.93F
MIDLAND AIRPK  SUNNY     83  26  12 W20G29    29.78F
MIDLAND INTL   SUNNY     83  29  14 SW25      29.76F
ODESSA         SUNNY     83  25  12 W23G29    29.78F
PECOS          SUNNY     86  27  11 W17G25    29.77F
PRESIDIO       FAIR      84  24  11 S3        29.80F
SEMINOLE       SUNNY     80  28  15 W17G28    29.78F
SNYDER         SUNNY     81  37  20 W22       29.74F
WINK           SUNNY     86  18   8 W21G28    29.75F
$$
...OTHER STATIONS IN TEXAS...

CITY           SKY/WX    TMP DP  RH WIND       PRES   REMARKS
ABILENE        SUNNY     85  38  18 W9        29.71F
AMARILLO       SUNNY     81  26  13 SW18G25   29.68F
AUSTIN         MOSUNNY   90  52  27 SW9       29.68F
BROWNSVILLE    PTSUNNY   88  78  72 E12       29.69S HX 101
CORPUS CHRISTI PTSUNNY   79  72  79 E14       29.73F
DALLAS FTW     SUNNY     86  48  26 W12       29.63F
DEL RIO        SUNNY     89  47  23 W3        29.70F
EL PASO        MOSUNNY   80  15   8 W28G33    29.82F
HOUSTON INT    MOSUNNY   85  69  58 S13       29.70F
LUBBOCK        MOSUNNY   80  29  15 SW21G30   29.72F
SAN ANGELO     SUNNY     88  30  12 W23G29    29.73F
SAN ANTONIO    MOSUNNY   90  54  29 S8        29.72F
WACO           SUNNY     88  47  24 SW14G22   29.67F
WICHITA FALLS  NOT AVBL
$$
...OTHER LOCATIONS IN NEW MEXICO...

CITY           SKY/WX    TMP DP  RH WIND       PRES   REMARKS
ALAMAGORDO     MOSUNNY   75  23  14 SW16G25   29.82F
ALBUQUERQUE    PTSUNNY   68  23  18 SW13      29.80F
CANNON AFB     NOT AVBL
CLOVIS         SUNNY     75  28  17 W23G31    29.73F
HOLLOMAN AFB   NOT AVBL
ROSWELL        SUNNY     80  25  13 SW8       29.73F
RUIDOSO        SUNNY     63  27  25 SW21G26   29.91F
SANTA FE       PTSUNNY   60  26  27 W16G23    29.85F
TRUTH OR CONSE SUNNY     74  21  13 SW12G28   29.79F
TUCUMCARI      SUNNY     78  25  14 W29G37    29.68F
$$

USA.gov is the U.S. government's official web portal to all federal, state and local government web resources and services.